TimeMST,TemperatureF,Dew PointF,Humidity,Sea Level PressureIn,VisibilityMPH,Wind Direction,Wind SpeedMPH,Gust SpeedMPH,PrecipitationIn,Events,Conditions,WindDirDegrees,DateUTC
12:15 AM,33.6,30.4,88,29.72,1.8,North,-9999.0,-,N/A,,Overcast,0,2013-11-17 07:15:00
12:35 AM,33.8,30.2,87,29.72,3.0,North,-9999.0,-,N/A,,Overcast,0,2013-11-17 07:35:00
12:55 AM,33.3,30.6,90,29.72,1.2,North,-9999.0,-,N/A,,Overcast,0,2013-11-17 07:55:00
1:15 AM,32.9,31.1,93,29.73,1.8,North,-9999.0,-,N/A,,Overcast,0,2013-11-17 08:15:00
1:35 AM,32.0,30.4,94,29.73,10.0,North,-9999.0,-,N/A,,Overcast,0,2013-11-17 08:35:00
1:55 AM,31.1,29.5,94,29.73,10.0,North,-9999.0,-,N/A,,Mostly Cloudy,0,2013-11-17 08:55:00
2:15 AM,33.6,28.0,80,29.74,10.0,North,-9999.0,-,N/A,,Overcast,0,2013-11-17 09:15:00
2:35 AM,32.0,29.7,91,29.75,10.0,North,-9999.0,-,N/A,,Overcast,0,2013-11-17 09:35:00
2:55 AM,33.8,27.7,78,29.77,10.0,North,-9999.0,-,N/A,,Overcast,0,2013-11-17 09:55:00
3:15 AM,33.6,28.9,83,29.76,10.0,West,16.1,25.3,N/A,,Overcast,270,2013-11-17 10:15:00
3:35 AM,33.4,28.0,81,29.77,10.0,West,8.1,-,N/A,,Mostly Cloudy,270,2013-11-17 10:35:00
3:55 AM,33.8,26.6,75,29.78,10.0,NNW,6.9,-,N/A,,Scattered Clouds,340,2013-11-17 10:55:00
4:15 AM,34.2,25.0,69,29.80,10.0,West,6.9,18.4,N/A,,Scattered Clouds,280,2013-11-17 11:15:00
4:35 AM,35.2,24.4,65,29.82,10.0,WNW,13.8,23.0,N/A,,Scattered Clouds,290,2013-11-17 11:35:00
4:55 AM,35.2,23.9,63,29.83,10.0,WNW,13.8,26.5,N/A,,Scattered Clouds,290,2013-11-17 11:55:00
5:15 AM,35.4,22.8,60,29.85,10.0,NNW,8.1,23.0,N/A,,Mostly Cloudy,330,2013-11-17 12:15:00
5:35 AM,34.7,23.2,63,29.86,10.0,North,-9999.0,-,N/A,,Mostly Cloudy,0,2013-11-17 12:35:00
5:55 AM,34.7,21.6,59,29.88,10.0,WNW,8.1,21.9,N/A,,Scattered Clouds,300,2013-11-17 12:55:00
6:15 AM,34.9,19.2,53,29.89,10.0,NNW,6.9,26.5,N/A,,Clear,330,2013-11-17 13:15:00
6:35 AM,35.1,17.8,49,29.90,10.0,North,8.1,24.2,N/A,,Scattered Clouds,350,2013-11-17 13:35:00
6:55 AM,35.6,16.0,45,29.92,7.0,NNW,5.8,29.9,N/A,,Scattered Clouds,340,2013-11-17 13:55:00
7:15 AM,35.6,17.1,47,29.95,10.0,West,13.8,19.6,N/A,,Scattered Clouds,280,2013-11-17 14:15:00
7:35 AM,36.0,18.5,49,29.98,10.0,WNW,26.5,35.7,N/A,,Clear,290,2013-11-17 14:35:00
7:55 AM,36.5,18.7,49,29.98,3.0,WSW,21.9,35.7,N/A,,Clear,250,2013-11-17 14:55:00
8:15 AM,37.4,19.0,48,29.99,10.0,West,15.0,23.0,N/A,,Clear,270,2013-11-17 15:15:00
8:35 AM,37.8,19.6,48,29.98,10.0,WSW,32.2,40.3,N/A,,Clear,250,2013-11-17 15:35:00
8:55 AM,38.5,19.8,47,30.00,10.0,West,27.6,36.8,N/A,,Clear,260,2013-11-17 15:55:00
9:15 AM,40.1,16.7,39,30.03,10.0,West,15.0,41.4,N/A,,Clear,280,2013-11-17 16:15:00
9:35 AM,40.1,20.5,45,30.02,10.0,West,27.6,35.7,N/A,,Clear,260,2013-11-17 16:35:00
9:55 AM,41.0,19.2,42,30.04,10.0,WNW,10.4,36.8,N/A,,Clear,300,2013-11-17 16:55:00
10:15 AM,41.9,22.6,46,30.06,10.0,SW,15.0,21.9,N/A,,Clear,220,2013-11-17 17:15:00
10:35 AM,42.4,22.3,45,30.05,10.0,WSW,29.9,35.7,N/A,,Clear,240,2013-11-17 17:35:00
10:55 AM,43.3,22.5,44,30.05,10.0,WSW,24.2,40.3,N/A,,Clear,240,2013-11-17 17:55:00
11:15 AM,44.4,22.3,42,30.06,10.0,WSW,20.7,32.2,N/A,,Clear,240,2013-11-17 18:15:00
11:35 AM,45.0,22.3,41,30.05,10.0,WSW,19.6,35.7,N/A,,Clear,250,2013-11-17 18:35:00
11:55 AM,45.9,20.3,36,30.05,10.0,WSW,23.0,31.1,N/A,,Clear,240,2013-11-17 18:55:00
12:15 PM,46.4,19.9,35,30.05,10.0,WSW,26.5,36.8,N/A,,Clear,250,2013-11-17 19:15:00
12:35 PM,46.8,19.2,33,30.05,10.0,WSW,25.3,39.1,N/A,,Clear,240,2013-11-17 19:35:00
12:55 PM,46.6,19.9,35,30.06,10.0,WSW,25.3,33.4,N/A,,Clear,240,2013-11-17 19:55:00
1:15 PM,46.8,19.0,33,30.05,10.0,WSW,24.2,38.0,N/A,,Clear,250,2013-11-17 20:15:00
1:35 PM,48.0,19.0,32,30.05,10.0,WSW,19.6,31.1,N/A,,Clear,250,2013-11-17 20:35:00
1:55 PM,48.0,18.9,31,30.07,10.0,WSW,21.9,38.0,N/A,,Clear,250,2013-11-17 20:55:00
2:15 PM,47.7,18.3,31,30.06,10.0,WSW,26.5,36.8,N/A,,Clear,250,2013-11-17 21:15:00
2:35 PM,47.7,18.5,31,30.07,10.0,WSW,21.9,35.7,N/A,,Clear,250,2013-11-17 21:35:00
2:55 PM,47.5,17.8,31,30.07,10.0,WSW,18.4,29.9,N/A,,Clear,240,2013-11-17 21:55:00
3:15 PM,47.3,17.4,30,30.09,10.0,WSW,18.4,25.3,N/A,,Clear,250,2013-11-17 22:15:00
3:35 PM,46.6,18.7,33,30.10,10.0,WSW,21.9,33.4,N/A,,Clear,240,2013-11-17 22:35:00
3:55 PM,45.5,19.0,35,30.11,10.0,WSW,21.9,29.9,N/A,,Clear,240,2013-11-17 22:55:00
4:15 PM,44.1,20.5,39,30.12,10.0,WSW,18.4,24.2,N/A,,Clear,240,2013-11-17 23:15:00
4:35 PM,43.2,20.3,40,30.13,10.0,WSW,20.7,29.9,N/A,,Clear,240,2013-11-17 23:35:00
4:55 PM,42.8,20.3,41,30.14,10.0,WSW,16.1,28.8,N/A,,Clear,240,2013-11-17 23:55:00
5:15 PM,42.6,20.5,41,30.15,10.0,SW,17.3,27.6,N/A,,Clear,230,2013-11-18 00:15:00
5:35 PM,42.1,20.5,42,30.15,10.0,SW,18.4,25.3,N/A,,Clear,230,2013-11-18 00:35:00
5:55 PM,42.3,19.9,41,30.17,10.0,SW,19.6,27.6,N/A,,Clear,230,2013-11-18 00:55:00
6:15 PM,41.0,21.9,47,30.17,10.0,SW,16.1,-,N/A,,Clear,220,2013-11-18 01:15:00
6:35 PM,41.0,19.0,41,30.19,10.0,SSW,15.0,26.5,N/A,,Clear,210,2013-11-18 01:35:00
6:55 PM,40.6,20.8,45,30.19,10.0,SW,17.3,20.7,N/A,,Clear,220,2013-11-18 01:55:00
7:15 PM,40.6,21.0,46,30.20,10.0,WSW,13.8,24.2,N/A,,Clear,240,2013-11-18 02:15:00
7:35 PM,41.0,20.7,44,30.21,10.0,SSW,13.8,21.9,N/A,,Clear,210,2013-11-18 02:35:00
7:55 PM,40.1,21.0,47,30.21,10.0,SSW,13.8,23.0,N/A,,Clear,210,2013-11-18 02:55:00
8:15 PM,40.1,20.7,46,30.21,10.0,SSW,13.8,21.9,N/A,,Clear,210,2013-11-18 03:15:00
8:35 PM,39.7,20.3,46,30.21,10.0,SW,10.4,19.6,N/A,,Clear,230,2013-11-18 03:35:00
8:55 PM,39.7,20.3,46,30.21,10.0,SW,15.0,19.6,N/A,,Clear,220,2013-11-18 03:55:00
9:15 PM,39.9,20.8,47,30.22,10.0,WSW,10.4,18.4,N/A,,Clear,250,2013-11-18 04:15:00
9:35 PM,39.2,20.5,47,30.23,10.0,West,11.5,19.6,N/A,,Clear,260,2013-11-18 04:35:00
9:55 PM,39.0,20.7,48,30.23,10.0,West,6.9,18.4,N/A,,Clear,270,2013-11-18 04:55:00
10:15 PM,39.4,20.7,47,30.23,10.0,SW,6.9,16.1,N/A,,Clear,220,2013-11-18 05:15:00
10:35 PM,35.4,20.3,54,30.24,10.0,NNW,5.8,-,N/A,,Clear,340,2013-11-18 05:35:00
10:55 PM,37.6,20.5,50,30.24,10.0,NW,8.1,-,N/A,,Clear,320,2013-11-18 05:55:00
11:15 PM,35.6,21.0,55,30.24,10.0,WNW,8.1,-,N/A,,Clear,300,2013-11-18 06:15:00
11:35 PM,34.9,21.2,57,30.25,10.0,North,4.6,-,N/A,,Clear,10,2013-11-18 06:35:00
11:55 PM,31.6,19.2,60,30.25,10.0,West,5.8,-,N/A,,Clear,260,2013-11-18 06:55:00